Regional Weather Roundup
Issued by NWS Sterling, VA

Home | Current Version | Previous Version | Graphics & Text | Print | Product List | Glossary On
Versions: 1 2 3 4 5 6 7 8 9 10 11 12 13 14 15 16 17 18 19 20 21 22 23 24 25 26 27 28 29 30 31 32 33 34 35 36 37 38 39 40 41 42 43 44 45 46 47 48 49
000
ASUS41 KLWX 081810
RWRLWX

REGIONAL WEATHER ROUNDUP
NATIONAL WEATHER SERVICE BALTIMORE MD/WASHINGTON DC
100 PM EST MON FEB 08 2016

Note: "FAIR" indicates few or no clouds below 12,000 feet
with no significant weather and/or obstructions to visibility.
 TC=TEMPERATURE CELSIUS

 * =Non NWS site. Station does not report precipitation (e.g. rain,
    snow, etc.), thunder, or fog.

DCZ001-MDZ009-015-VAZ040>042-051-053>054-081900-
WASHINGTON METRO

CITY           SKY/WX    TMP DP  RH WIND       PRES   REMARKS
WASHINGTON NAT PTSUNNY   45  29  53 VRB3      29.72F
DULLES         PTSUNNY   45  25  45 S7        29.71F
ANDREWS AFB    MOSUNNY   45  29  54 VRB2      29.70F
FT BELVOIR     FAIR      46  27  47 VRB6      29.71F
QUANTICO       FAIR      44  27  51 SW6       29.73F
COLLEGE PARK*  FAIR      45  30  57 SE5       29.72F
LEESBURG*      FAIR      46  30  53 SW7       29.71F
MANASSAS*      SUNNY     46  28  49 SE3       29.71F
GAITHERSBURG*  MOSUNNY   45  27  49 S9        29.73F

$$

MDZ006>007-011-014-081900-
BALTIMORE METRO

CITY           SKY/WX    TMP DP  RH WIND       PRES   REMARKS
BWI AIRPORT    MOSUNNY   43  28  55 NE8       29.72F
MD SCIENCE CTR   N/A     46  28  49 MISG      29.75F
MARTIN STATE   MOSUNNY   46  32  57 NE8       29.73F
ANNAPOLIS      SUNNY     43  29  57 CALM      29.72F
FORT MEADE*    MOSUNNY   45  30  57 SE6       29.74F

$$

MDZ012-015-019>023-081900-
MARYLAND EASTERN SHORE

CITY           SKY/WX    TMP DP  RH WIND       PRES   REMARKS
OCEAN CITY     CLOUDY    42  32  67 NE15G23   29.72F
SALISBURY      CLOUDY    43  33  68 CALM      29.72F
BAY BRIDGE AP*   N/A     41  30  65 NW6       29.73F
CAMBRIDGE*     CLOUDY    43  32  65 CALM      29.72F
EASTON*        CLOUDY    43  30  61 E12       29.76F

$$

MDZ017>025-081900-
SOUTHERN MARYLAND

CITY           SKY/WX    TMP DP  RH WIND       PRES   REMARKS
PATUXENT RIVER PTSUNNY   44  29  55 E7        29.72F
ST INIGOES     PTSUNNY   44  33  65 SW7       29.71F
LEONARDTOWN*   SUNNY     43  30  61 CALM      29.73F

$$

MDZ003>005-081900-
NORTH CENTRAL MARYLAND

CITY           SKY/WX    TMP DP  RH WIND       PRES   REMARKS
FREDERICK*     SUNNY     43  30  61 VRB3      29.73F
HAGERSTOWN APT MOSUNNY   41  23  48 VRB3      29.69F
WESTMINSTER*   MOSUNNY   43  34  70 S3        29.69F

$$

MDZ501>502-081900-
WESTERN MARYLAND

CITY           SKY/WX    TMP DP  RH WIND       PRES   REMARKS
OAKLAND*       PTSUNNY   36  23  60 SE13G20   29.56F WCI  27
CUMBERLAND*    SUNNY     45  23  42 SE7       29.70F

$$

VAZ025>031-081900-
SHENANDOAH VALLEY

CITY           SKY/WX    TMP DP  RH WIND       PRES   REMARKS
WINCHESTER*    FAIR      43  23  45 SE7       29.68F
FRONT ROYAL*   FAIR      45  23  42 S3        29.68F
LURAY*         FAIR      43  27  52 S5        29.68F
NEW MARKET*    FAIR      44  26  48 SW6       29.66F
STAUNTON*      FAIR      49  26  40 S12       29.67F
WAYNESBORO*    FAIR      44  20  39 SE12      29.65F

$$

WVZ021-048>050-054>055-081900-
EASTERN WEST VIRGINIA PANHANDLE

CITY           SKY/WX    TMP DP  RH WIND       PRES   REMARKS
MARTINSBURG    FAIR      42  23  46 VRB7      29.70F
PETERSBURG*    PTSUNNY   46  26  45 CALM      29.63F

$$

VAZ036>039-050-081900-
CENTRAL FOOTHILLS

CITY           SKY/WX    TMP DP  RH WIND       PRES   REMARKS
CHARLOTTESVILL FAIR      46  21  37 VRB6      29.70F
CULPEPER*      FAIR      45  25  45 W5        29.72F
ORANGE*        FAIR      46  21  36 SW6       29.72F
GORDONSVILLE*  FAIR      45  22  39 S7        29.70F
WARRENTON*     FAIR      48  29  47 CALM      29.70F

$$

VAZ055>057-081900-
NORTH AND CENTRAL PIEDMONT

CITY           SKY/WX    TMP DP  RH WIND       PRES   REMARKS
FREDERICKSBRG* FAIR      46  28  49 CALM      29.71F
STAFFORD*      FAIR      45  25  44 W5        29.75F

$$

NCZ024-NYZ072-PAZ021-071-VAZ022-071-081900-
OTHER REGIONAL OBSERVATIONS

CITY           SKY/WX    TMP DP  RH WIND       PRES   REMARKS
NEW YORK CITY  CLOUDY    32  24  72 NE10G23   29.77F WCI  24
PHILADELPHIA   CLOUDY    42  26  53 NE14      29.72F
PITTSBURGH     CLOUDY    43  24  47 S12       29.56F
ROANOKE        CLOUDY    42  27  55 SE9       29.69F
RICHMOND       PTSUNNY   47  25  42 VRB3      29.71F
RALEIGH        PTSUNNY   53  27  36 S6        29.72F

$$

ANZ530>537-081900-
MARINE OBSERVATIONS

STATION/POSITION TIME  TEMP    WIND        PRES
                       AIR SEA DIR/SP/G
                 (UTC) (F)     (DEG/KT/KT) (MB)
THOMAS PT LIGHT  1800   40 39  330/  5/  5 1007.3F
BALT KEY BRIDGE  1700   40      80/  8/ 10 1007.7F
COVE POINT       1700   38     350/ 11/ 13 1008.3F
LEWISETTA        1700   41 41  120/  2/  3 1007.6F
SOLOMONS ISLAND  1700   42 41  270/  5/  7   N/A

$$




USA.gov is the U.S. government's official web portal to all federal, state and local government web resources and services.